Talkeetna, AK

5:30 PM AKDT on October 20, 2017 (GMT -0800)
Talkeetna

Weather History for PATK - April, 2013

Change the Weather History Date:

Thursday, April 25, 2013

  Actual Average Record
Temperature  
Mean Temperature 32 °F -  
Max Temperature 39 °F 48 °F 63 °F (2005)
Min Temperature 26 °F 27 °F 6 °F (1955)
Degree Days  
Heating Degree Days 32    
Moisture  
Dew Point 9 °F    
Average Humidity 36    
Maximum Humidity 69    
Minimum Humidity 14    
Precipitation  
Precipitation 0.00 in - - ()
Sea Level Pressure  
Sea Level Pressure 29.88 in    
Wind  
Wind Speed 10 mph (NNE)    
Max Wind Speed 25 mph    
Max Gust Speed 41 mph    
Visibility 10 miles    
Events      
Averages and records for this station are not official NWS values.
T = Trace of Precipitation, MM = Missing Value Source: NWS Daily Summary

Daily Weather History Graph

Daily Weather History Graph

Search for Another Location

Airport or City:

Trip Planner

Search our weather history database for the weather conditions in past years. The results will help you decide how hot, cold, wet, or windy it might be!

Date:

Astronomy

Apr. 25, 2013 Rise Set
Actual Time 6:02 AM AKDT 9:56 PM AKDT
Civil Twilight 5:05 AM AKDT 10:53 PM AKDT
Nautical Twilight 3:35 AM AKDT 12:27 AM AKDT
Astronomical Twilight Sun does not rise Sun does not rise
Moon 10:35 PM AKDT (4/25) 5:52 AM AKDT (4/25)
Length of Visible Light 17h 47m
Length of Day
15h 53m
Full, 100% of the Moon is Illuminated
Apr 25
Full
May 2
Last Quarter
May 9
New
May 17
First Quarter
May 24
Full

Hourly Weather History & Observations

Time (AKDT) Temp. Windchill Dew Point Humidity Pressure Visibility Wind Dir Wind Speed Gust Speed Precip Events Conditions
12:53 AM 35.1 °F 31.0 °F 19.0 °F 52% 29.91 in 10.0 mi NNE 4.6 mph - N/A   Clear
1:53 AM 36.0 °F 29.0 °F 15.1 °F 43% 29.92 in 10.0 mi North 9.2 mph - N/A   Clear
2:53 AM 33.1 °F 27.7 °F 17.1 °F 52% 29.92 in 10.0 mi NNE 5.8 mph - N/A   Clear
3:53 AM 28.0 °F 22.8 °F 19.0 °F 69% 29.91 in 10.0 mi NE 4.6 mph - N/A   Clear
4:53 AM 28.9 °F - 17.1 °F 61% 29.90 in 10.0 mi Calm Calm - N/A   Clear
5:53 AM 30.9 °F - 12.9 °F 47% 29.89 in 10.0 mi Calm Calm - N/A   Clear
6:53 AM 33.1 °F 28.7 °F 12.9 °F 43% 29.88 in 10.0 mi North 4.6 mph - N/A   Overcast
7:53 AM 35.1 °F 29.3 °F 14.0 °F 42% 29.88 in 10.0 mi NNE 6.9 mph - N/A   Clear
8:53 AM 37.0 °F 33.3 °F 14.0 °F 39% 29.87 in 10.0 mi North 4.6 mph - N/A   Clear
9:53 AM 37.0 °F 28.5 °F 10.9 °F 34% 29.86 in 10.0 mi NNE 13.8 mph 23.0 mph N/A   Clear
10:53 AM 37.9 °F 27.6 °F 7.0 °F 28% 29.87 in 10.0 mi North 20.7 mph 28.8 mph N/A   Clear
11:53 AM 37.9 °F 30.0 °F 5.0 °F 25% 29.87 in 10.0 mi NE 12.7 mph 20.7 mph N/A   Clear
12:53 PM 37.0 °F 25.9 °F 5.0 °F 26% 29.86 in 10.0 mi NE 23.0 mph 35.7 mph N/A   Clear
1:53 PM 37.0 °F 25.4 °F 6.1 °F 28% 29.86 in 10.0 mi NE 25.3 mph 39.1 mph N/A   Clear
2:53 PM 37.0 °F 26.4 °F 3.0 °F 24% 29.87 in 10.0 mi NNE 20.7 mph 31.1 mph N/A   Clear
3:53 PM 37.0 °F 26.7 °F 5.0 °F 26% 29.86 in 10.0 mi NE 19.6 mph 28.8 mph N/A   Clear
4:53 PM 36.0 °F 26.0 °F 5.0 °F 27% 29.86 in 10.0 mi NNE 17.3 mph 32.2 mph N/A   Clear
5:53 PM 36.0 °F 24.7 °F 3.9 °F 26% 29.85 in 10.0 mi NNE 21.9 mph 41.4 mph N/A   Clear
6:53 PM 35.1 °F 23.5 °F 3.9 °F 27% 29.85 in 10.0 mi NNE 21.9 mph 34.5 mph N/A   Clear
7:53 PM 34.0 °F 23.0 °F 5.0 °F 30% 29.85 in 10.0 mi NNE 18.4 mph 27.6 mph N/A   Clear
8:53 PM 32.0 °F 20.8 °F 6.1 °F 34% 29.85 in 10.0 mi NNE 17.3 mph 26.5 mph N/A   Clear
9:53 PM 30.9 °F 20.2 °F 5.0 °F 33% 29.87 in 10.0 mi North 15.0 mph 29.9 mph N/A   Clear
10:53 PM 30.0 °F 18.7 °F 3.9 °F 33% 29.88 in 10.0 mi NNE 16.1 mph 24.2 mph N/A   Clear
11:53 PM 28.9 °F 17.7 °F 3.0 °F 33% 29.87 in 10.0 mi NNE 15.0 mph 25.3 mph N/A   Clear